SCP
6 6 5 5 5 4 4 3 2 2 3 3 4 3 3 3 3 2 2 2 2 2 2 2 2 2 3 3 2 2 3 3 3 2 2 3 3 3 3 3 2 2 2
6 5 5 5 4 4 3 3 2 2 3 3 4 4 4 3 3 2 2 2 2 2 3 2 2 3 3 3 3 2 2 2 3 3 3 3 3 3 3 3 3 3 3
6 6 5 4 4 3 3 3 3 3 3 3 4 5 5 4 3 3 3 2 2 3 3 3 2 3 3 3 2 2 2 2 3 3 3 3 3 3 4 4 3 4 4
6 6 5 4 4 4 4 4 4 4 4 4 4 5 5 5 5 4 3 3 2 3 3 2 2 2 2 2 2 1 1 2 2 2 2 3 3 3 4 3 3 3 3
6 6 6 5 5 5 5 5 5 5 5 5 4 4 5 5 5 4 4 3 3 3 2 2 2 2 2 1 1 1 1 1 1 2 2 2 3 3 3 3 3 3 3
6 6 6 7 7 7 7 6 6 6 6 5 5 4 4 4 4 4 4 4 4 3 3 3 2 2 2 1 1 1 1 1 1 1 1 2 2 2 3 3 3 3 3
5 6 7 8 9 9 8 7 6 6 6 5 5 4 4 3 3 3 4 4 4 4 4 4 3 2 2 2 1 1 1 1 1 1 1 1 1 2 3 4 5 6 6
5 5 6 7 9 10 9 9 8 7 6 5 4 4 3 2 2 2 3 4 5 5 5 5 4 3 2 3 2 2 1 1 1 1 1 1 1 1 3 4 5 6 6
5 4 5 6 8 9 10 10 10 9 7 5 4 4 3 2 1 1 2 4 5 5 4 4 3 2 2 2 2 2 2 1 1 1 1 1 1 1 2 3 4 4 4
5 5 5 5 7 8 9 10 10 10 8 6 5 4 4 3 1 1 2 4 5 5 4 3 2 2 1 1 1 2 2 2 2 2 1 1 1 1 1 2 3 2 2
5 5 5 5 5 6 7 8 9 8 7 6 5 5 4 3 2 1 2 4 5 5 4 4 2 1 1 0 1 1 1 2 2 2 2 2 2 2 2 2 3 3 3
5 5 5 4 4 4 5 7 7 7 7 6 5 5 4 4 2 1 1 2 4 5 5 4 3 1 0 0 0 0 1 1 2 3 2 2 2 2 3 4 4 4 4
4 4 4 4 3 3 4 5 6 6 5 4 4 4 4 4 2 1 1 1 2 4 4 4 2 1 0 0 0 0 0 1 2 2 3 3 3 3 4 6 6 6 5
5 4 4 3 3 3 4 4 5 5 4 3 3 3 3 3 3 2 2 2 2 3 4 3 2 1 1 1 1 1 1 1 2 2 3 3 3 4 6 8 8 7 7
4 4 3 3 3 3 3 4 5 4 4 3 2 2 2 2 2 3 3 2 2 3 4 4 3 2 2 2 2 2 2 2 2 2 3 3 3 4 5 7 9 9 8
4 3 3 3 3 3 3 4 4 4 3 2 1 1 1 1 1 2 2 1 1 2 3 4 3 2 2 2 3 3 2 2 2 2 2 3 3 3 4 5 7 8 7
2 2 2 3 3 3 3 3 3 3 3 2 1 1 1 1 1 0 0 0 0 1 2 3 3 2 2 3 3 3 3 3 3 3 3 3 3 3 3 4 4 4 4
2 2 2 2 2 2 3 3 3 4 4 4 2 1 0 0 0 0 0 0 1 1 1 2 2 2 3 3 4 4 4 4 4 4 4 4 3 3 3 3 3 3 2
2 2 2 2 2 2 3 3 4 5 6 6 4 3 1 0 0 0 0 1 1 1 1 2 2 2 3 3 4 4 4 4 4 5 5 4 3 3 3 3 3 3 2
1 1 1 1 1 2 2 3 4 4 5 6 6 5 3 2 1 1 1 1 1 2 1 1 2 2 2 3 3 3 3 3 4 5 6 5 4 3 3 3 3 3 3
1 1 1 1 1 2 2 3 3 3 4 6 6 6 4 3 3 3 2 2 2 3 2 2 2 2 3 3 3 3 3 3 4 5 7 6 4 3 2 3 3 3 3
1 1 1 1 1 1 2 3 2 2 3 5 7 6 4 4 5 5 4 3 4 4 4 3 3 3 3 3 3 3 3 3 4 7 10 9 5 3 3 3 3 3 3
1 1 1 1 1 1 2 2 2 2 3 4 7 6 5 5 7 7 6 4 4 4 4 4 3 3 3 3 3 3 3 4 5 9 11 8 4 3 3 3 2 2 2
1 1 1 1 1 1 1 2 2 3 3 4 6 6 5 6 7 8 6 5 4 4 4 3 3 3 3 3 3 3 3 4 5 7 7 5 3 3 3 3 3 2 2
1 1 1 1 1 1 1 1 1 2 3 3 4 4 3 4 5 5 5 4 3 3 3 3 3 4 4 3 3 2 2 2 3 3 3 2 2 2 3 3 2 2 1
1 1 1 1 1 1 1 1 1 1 1 2 2 1 1 2 2 3 3 3 3 3 2 3 3 4 4 3 2 1 1 1 1 1 1 1 2 2 2 2 2 1 1
Wind_Speed
6 5 4 5 5 5 4 3 3 2 3 3 2 2 2 2 2 2 2 2 2 2 2 2 2 2 2 2 2 2 2 3 3 2 1 1 0 2 0 1 1 2 2
5 5 5 4 4 4 4 4 3 3 3 3 3 3 3 3 2 2 3 2 2 3 2 2 2 2 2 2 2 2 2 2 3 2 1 1 1 2 2 3 2 1 1
5 5 5 4 4 4 3 3 3 3 3 3 3 3 3 3 3 3 3 3 3 3 3 3 3 2 3 2 2 2 2 2 2 3 2 1 1 1 2 3 2 2 2
5 5 5 4 4 4 4 4 4 3 3 3 3 4 3 3 3 3 3 3 3 3 3 3 3 3 3 3 2 2 2 2 2 3 3 2 1 1 3 2 2 2 2
5 4 4 4 4 4 4 4 3 3 3 3 3 3 4 4 3 3 4 4 4 4 3 3 2 1 1 2 2 1 2 2 3 3 3 2 1 1 2 3 2 2 1
5 4 3 4 4 4 4 4 4 3 3 3 3 3 3 3 2 2 4 4 4 4 4 4 3 4 3 3 2 2 2 3 4 4 3 2 2 3 3 3 2 3 2
4 4 3 3 4 4 4 4 4 3 3 3 3 3 3 3 3 4 5 5 5 4 4 4 4 3 5 4 5 5 4 3 4 5 4 4 3 3 4 4 3 4 4
4 3 3 3 3 3 4 4 4 3 4 4 4 4 4 3 5 5 6 6 5 5 5 5 5 4 4 4 5 5 5 4 4 5 4 4 4 4 5 5 5 5 4
4 3 3 4 4 4 4 4 4 3 4 4 4 4 5 4 5 6 7 6 6 6 6 6 6 5 2 3 6 6 5 5 4 4 4 4 3 4 5 5 4 5 4
4 4 4 4 4 4 4 4 3 3 4 4 4 4 5 5 5 7 7 6 5 5 5 6 6 6 3 5 7 7 7 6 4 5 5 7 7 6 7 6 5 5 4
3 3 3 4 4 4 4 3 3 3 3 4 4 4 5 5 6 7 7 6 5 5 5 4 3 7 6 7 7 7 6 6 6 6 6 6 5 5 5 5 5 5 5
3 3 3 4 4 3 3 3 4 4 5 5 4 4 4 4 4 6 8 8 6 5 5 4 2 6 6 7 7 5 6 7 6 5 6 5 5 5 4 4 4 5 5
3 3 3 4 3 3 4 4 4 4 4 4 3 4 3 2 3 6 8 8 7 6 4 2 1 4 5 7 8 8 8 7 6 6 6 5 5 4 4 4 5 5 7
3 3 3 4 4 3 3 4 4 4 4 3 3 3 3 3 2 2 3 5 7 7 5 4 6 7 7 5 5 7 7 5 6 6 5 5 4 4 5 4 4 4 5
3 3 3 4 3 2 3 2 3 2 2 3 3 3 3 3 1 1 2 3 3 2 3 4 4 4 5 5 5 5 5 5 6 6 5 5 5 5 4 4 4 5 5
3 3 3 3 2 3 2 2 1 2 1 2 3 4 2 1 1 1 2 2 2 3 4 5 5 5 5 5 5 5 5 5 5 5 5 5 5 5 5 4 4 5 5
3 3 3 3 3 3 3 3 3 2 4 4 4 4 5 4 3 3 4 4 4 5 6 6 5 5 5 5 5 5 5 4 4 5 6 6 5 5 5 5 4 5 5
4 3 4 4 4 4 4 4 4 4 3 3 4 5 6 6 6 6 5 4 4 5 6 6 5 5 5 5 5 5 5 4 5 6 6 6 5 5 5 5 5 5 5
4 3 3 3 4 4 4 4 4 4 4 4 3 3 6 6 6 6 6 4 5 5 5 5 5 5 5 5 5 5 5 5 5 5 5 5 5 5 5 6 5 5 6
3 2 3 4 4 4 3 3 3 3 4 4 4 3 2 3 3 4 4 4 5 5 5 5 5 4 4 4 4 4 5 5 5 5 5 5 5 5 6 6 6 5 5
3 3 4 4 4 3 3 3 3 4 3 4 3 2 3 4 4 4 4 4 4 5 4 4 4 4 4 4 4 5 6 5 5 5 5 5 5 5 5 5 5 5 5
3 4 4 4 3 3 4 4 4 4 4 4 4 3 5 5 4 3 3 4 4 4 4 4 4 4 4 4 4 5 5 5 5 5 5 4 4 4 5 5 5 5 5
4 4 4 3 3 3 4 4 3 4 4 4 4 3 2 3 3 4 4 4 3 4 3 3 4 3 3 3 4 4 5 5 5 5 5 5 5 5 5 5 6 6 5
4 4 4 3 3 4 4 3 3 3 4 4 4 3 3 3 3 4 3 3 3 3 3 3 4 4 5 4 3 3 3 4 5 5 6 6 6 5 5 5 6 6 6
4 4 4 3 3 3 3 3 3 3 4 4 4 3 3 3 3 3 3 3 3 3 4 4 3 4 5 5 4 3 2 2 3 5 5 5 6 6 6 6 6 6 5
4 3 3 3 3 3 3 3 3 3 3 3 3 3 3 4 3 3 3 3 3 3 3 3 3 4 4 3 3 3 1 1 2 4 5 5 5 5 6 5 6 6 6
Wind_Direction
182 185 186 186 186 186 188 194 196 206 195 191 198 209 211 219 225 229 244 225 237 237 241 227 252 288 277 266 251 258 268 274 270 269 224 113 228 289 238 270 238 242 154
172 174 180 182 183 187 187 191 194 197 204 199 200 205 214 216 224 228 242 238 241 241 248 247 246 232 235 266 266 266 274 272 268 276 263 216 241 258 259 263 249 251 240
168 171 177 179 177 184 186 189 198 202 209 216 212 213 222 224 224 233 237 235 238 239 241 245 248 244 237 235 252 263 264 252 262 264 265 275 251 256 247 246 251 268 259
168 172 174 184 183 185 190 193 198 204 212 221 228 225 224 226 228 230 229 228 234 232 232 237 239 239 239 238 233 249 276 276 252 259 266 247 240 253 259 255 241 232 265
173 183 178 186 191 192 192 199 206 216 218 218 228 233 230 225 227 225 226 220 224 231 227 226 223 224 335 287 283 265 255 264 259 255 259 257 254 274 272 274 273 260 228
179 187 186 193 195 198 201 205 208 212 222 220 229 237 243 240 137 199 245 230 225 228 230 233 218 198 198 202 267 294 300 272 284 285 277 289 289 275 289 286 292 289 277
176 179 182 192 199 205 207 205 209 214 217 226 238 240 248 233 170 199 229 238 235 235 233 235 243 209 199 214 202 207 222 247 272 280 287 292 288 290 286 276 282 287 295
180 188 195 204 205 205 209 211 216 220 223 227 233 236 240 224 184 204 220 228 236 236 235 233 241 244 234 234 231 223 224 218 228 245 268 276 286 297 276 270 276 263 251
188 198 204 212 213 210 211 216 222 224 231 236 233 234 235 226 199 211 227 231 229 233 234 234 236 238 212 227 239 238 238 233 204 213 248 257 277 278 284 274 271 270 265
202 209 215 220 223 224 221 221 222 227 234 242 238 235 234 233 204 207 224 236 234 233 229 228 222 230 201 209 238 242 242 245 247 224 225 229 233 230 233 256 269 271 277
213 215 218 222 227 225 222 222 223 232 240 246 244 241 237 233 203 201 217 243 243 242 238 233 210 183 204 215 239 249 254 258 246 243 238 237 234 233 231 235 258 272 276
226 224 222 225 233 222 222 227 226 232 234 236 236 241 234 220 216 198 205 232 266 258 257 252 203 170 202 220 229 240 247 253 247 245 248 248 244 241 235 238 243 258 268
234 234 235 237 236 229 225 228 229 227 240 243 242 246 247 238 192 187 200 218 236 249 266 315 239 197 215 222 221 224 229 239 248 250 251 254 255 254 251 236 230 237 241
237 238 239 240 241 232 238 237 239 241 244 249 251 256 255 253 247 211 210 206 208 222 237 216 204 213 231 241 218 218 231 242 253 256 259 262 260 246 238 238 241 240 244
241 243 246 247 247 245 245 260 256 268 289 273 270 260 260 262 305 324 277 272 277 286 270 246 237 223 225 226 229 229 233 232 236 247 254 253 252 250 246 239 244 244 245
247 252 256 252 240 245 246 247 246 236 207 235 265 275 268 265 240 238 238 251 250 240 250 248 247 247 244 240 238 234 234 238 236 239 244 247 249 251 251 246 242 246 250
255 261 264 264 255 251 251 250 245 214 206 215 226 241 244 257 252 237 235 232 224 206 232 248 250 251 253 253 252 251 247 243 243 244 244 243 243 245 246 243 241 245 249
256 250 260 262 260 258 257 252 246 250 241 232 215 213 217 224 231 227 219 213 221 216 242 250 250 249 250 254 257 260 258 249 240 244 245 244 242 242 243 244 239 245 254
271 261 259 265 264 265 263 260 257 257 260 258 253 211 200 206 212 214 204 233 251 248 248 252 256 255 255 256 258 260 259 257 251 250 250 248 243 241 243 245 243 229 245
276 269 265 269 265 262 260 258 261 260 262 263 263 264 228 214 219 202 212 238 254 256 256 255 257 259 262 261 257 257 258 256 253 250 251 248 246 245 245 247 247 239 235
277 258 240 253 259 264 266 268 268 265 267 273 270 257 264 254 242 231 229 239 253 257 260 263 264 261 258 257 257 254 255 255 252 252 249 247 248 245 251 251 244 243 243
274 266 259 265 269 269 274 273 271 268 265 268 269 235 208 239 253 255 249 246 250 256 260 261 262 262 265 264 259 256 256 258 255 252 253 254 251 251 253 252 248 242 238
263 264 263 264 262 251 256 266 270 269 269 270 274 282 252 257 262 258 258 259 259 263 262 259 263 267 265 259 257 260 264 266 266 266 261 255 252 253 254 253 249 246 241
266 266 268 267 261 256 259 263 268 276 281 283 284 281 267 260 268 272 271 274 274 270 268 266 265 268 268 269 266 266 275 289 283 269 266 268 264 261 259 257 254 248 246
267 268 270 269 266 265 268 273 280 283 285 287 286 284 281 278 277 283 285 280 276 274 272 270 272 274 275 277 283 293 326 323 292 291 269 263 264 265 262 260 256 254 249
276 278 278 277 275 276 277 277 280 286 292 296 296 296 295 292 289 290 291 289 282 278 279 276 287 292 295 291 297 310 309 266 262 275 271 260 257 258 260 257 256 254 252